Weather History for Alexandria, LA

Change the Weather History Date:

Thursday, October 27, 2011

  Actual Average Record
Temperature  
Mean Temperature 71 °F 64 °F  
Max Temperature 85 °F 77 °F 92 °F (2000)
Min Temperature 57 °F 51 °F 29 °F (1898)
Degree Days  
Heating Degree Days 0 4  
Month to date heating degree days 51 54  
Since 1 July heating degree days 51 57  
Cooling Degree Days 6 3  
Month to date cooling degree days 97 127  
Year to date cooling degree days 2974 2477  
Growing Degree Days 22 (Base 50)    
Moisture  
Dew Point 60 °F    
Average Humidity 69    
Maximum Humidity 100    
Minimum Humidity 37    
Precipitation  
Precipitation 0.04 in 0.09 in 1.75 in (1988)
Month to date precipitation 0.41 4.93  
Year to date precipitation 26.31 44.06  
Snow  
Snow 0.00 in - 0.00 in ()
Month to date snowfall 0.0  
Since 1 July snowfall 0.0  
Since 1 September snowfall 0.0  
Snow Depth 0.00 in    
Sea Level Pressure  
Sea Level Pressure 29.89 in    
Wind  
Wind Speed 5 mph (ESE)    
Max Wind Speed 20 mph    
Max Gust Speed 25 mph    
Visibility 5 miles    
Events Fog , Rain    
T = Trace of Precipitation, MM = Missing Value Source: NWS Daily Summary

Daily Weather History Graph

Daily Weather History Graph

Search for Another Location

Airport:

Trip Planner

Search our weather history database for the weather conditions in past years. The results will help you decide how hot, cold, wet, or windy it might be!

Date:

Astronomy

Oct. 27, 2011 Rise Set
Actual Time 7:21 AM CDT 6:25 PM CDT
Civil Twilight 6:56 AM CDT 6:50 PM CDT
Nautical Twilight 6:28 AM CDT 7:19 PM CDT
Astronomical Twilight 6:00 AM CDT 7:47 PM CDT
Moon 8:17 AM CDT (10/27) 7:04 PM CDT (10/27)
Length of Visible Light 11h 53m
Length of Day
11h 04m
New Moon, 1% of the Moon is Illuminated
Oct 27
New Moon
Nov 2
First Quarter
Nov 10
Full
Nov 18
Last Quarter
Nov 25
New

Hourly Weather History & Observations

Time (CDT) Temp. Heat Index Dew Point Humidity Pressure Visibility Wind Dir Wind Speed Gust Speed Precip Events Conditions
12:53 AM 64.9 °F - 61.0 °F 87% 29.92 in 10.0 mi South 3.5 mph - N/A   Clear
1:53 AM 64.9 °F - 62.1 °F 90% 29.91 in 10.0 mi South 5.8 mph - N/A   Clear
2:53 AM 64.0 °F - 62.1 °F 93% 29.90 in 10.0 mi South 4.6 mph - N/A   Clear
3:53 AM 61.0 °F - 60.1 °F 97% 29.89 in 7.0 mi Calm Calm - N/A   Clear
4:53 AM 61.0 °F - 61.0 °F 100% 29.89 in 5.0 mi ESE 3.5 mph - N/A   Clear
5:19 AM 60.8 °F - 60.8 °F 100% 29.88 in 1.2 mi Calm Calm - N/A   Clear
5:27 AM 60.8 °F - 59.0 °F 94% 29.88 in 0.8 mi Calm Calm - N/A   Mist
5:30 AM 60.8 °F - 59.0 °F 94% 29.89 in 1.8 mi Calm Calm - N/A   Partly Cloudy
5:37 AM 60.8 °F - 59.0 °F 94% 29.89 in 0.8 mi Calm Calm - N/A   Partly Cloudy
5:51 AM 60.8 °F - 59.0 °F 94% 29.89 in 2.0 mi Calm Calm - N/A   Mostly Cloudy
5:53 AM 59.0 °F - 59.0 °F 100% 29.90 in 4.0 mi Calm Calm - N/A   Mostly Cloudy
6:04 AM 59.0 °F - 59.0 °F 100% 29.89 in 1.8 mi SSE 3.5 mph - N/A   Overcast
6:26 AM 60.8 °F - 60.8 °F 100% 29.89 in 2.0 mi SE 3.5 mph - N/A   Overcast
6:36 AM 60.8 °F - 60.8 °F 100% 29.89 in 1.2 mi SE 4.6 mph - N/A   Mostly Cloudy
6:42 AM 60.8 °F - 60.8 °F 100% 29.89 in 0.8 mi SE 3.5 mph - N/A   Mostly Cloudy
6:53 AM 60.1 °F - 60.1 °F 100% 29.91 in 0.2 mi SE 4.6 mph - N/A Fog Fog
7:02 AM 60.8 °F - 60.8 °F 100% 29.89 in 0.2 mi SE 3.5 mph - N/A Fog Fog
7:17 AM 60.8 °F - 60.8 °F 100% 29.89 in 0.8 mi Calm Calm - N/A   Overcast
7:24 AM 60.8 °F - 60.8 °F 100% 29.89 in 1.8 mi Calm Calm - N/A   Overcast
7:38 AM 60.8 °F - 60.8 °F 100% 29.90 in 0.2 mi SE 3.5 mph - N/A Fog Fog
7:49 AM 60.8 °F - 60.8 °F 100% 29.90 in 0.2 mi Calm Calm - N/A Fog Fog
7:53 AM 62.1 °F - 62.1 °F 100% 29.91 in 0.2 mi Calm Calm - N/A Fog Fog
8:53 AM 63.0 °F - 63.0 °F 100% 29.92 in 0.2 mi SE 4.6 mph - N/A Fog Fog
9:53 AM 64.0 °F - 64.0 °F 100% 29.94 in 0.5 mi Calm Calm - N/A Fog Fog
10:04 AM 64.4 °F - 64.4 °F 100% 29.92 in 2.0 mi ESE 3.5 mph - N/A   Overcast
10:23 AM 66.2 °F - 64.4 °F 94% 29.92 in 5.0 mi SE 3.5 mph - N/A   Mostly Cloudy
10:39 AM 68.0 °F - 64.4 °F 88% 29.91 in 10.0 mi SE 3.5 mph - N/A   Scattered Clouds
10:53 AM 70.0 °F - 64.9 °F 84% 29.92 in 10.0 mi ESE 4.6 mph - N/A   Clear
11:53 AM 78.1 °F - 62.1 °F 58% 29.91 in 10.0 mi WSW 5.8 mph - N/A   Clear
12:53 PM 81.0 °F 81.9 °F 62.1 °F 52% 29.88 in 10.0 mi Variable 6.9 mph - N/A   Clear
1:53 PM 82.9 °F 83.2 °F 60.1 °F 46% 29.85 in 10.0 mi Variable 6.9 mph - N/A   Clear
2:53 PM 84.9 °F 84.2 °F 57.9 °F 40% 29.83 in 10.0 mi SW 5.8 mph - N/A   Partly Cloudy
3:53 PM 84.9 °F 83.7 °F 55.9 °F 37% 29.81 in 10.0 mi SW 3.5 mph - N/A   Partly Cloudy
4:53 PM 84.0 °F 83.0 °F 55.9 °F 38% 29.81 in 10.0 mi ESE 4.6 mph - N/A   Mostly Cloudy
5:20 PM 73.4 °F - 59.0 °F 61% 29.82 in 10.0 mi NNE 16.1 mph 24.2 mph 0.00 in Rain Light Rain
5:53 PM 71.1 °F - 59.0 °F 66% 29.85 in 10.0 mi ENE 11.5 mph 19.6 mph 0.00 in   Overcast
6:53 PM 66.2 °F - 57.2 °F 73% 29.87 in 10.0 mi NE 10.4 mph - N/A   Mostly Cloudy
7:53 PM 64.0 °F - 55.0 °F 73% 29.92 in 10.0 mi NE 9.2 mph - N/A   Overcast
8:53 PM 62.1 °F - 54.0 °F 75% 29.95 in 10.0 mi North 4.6 mph - 0.00 in   Overcast
9:53 PM 60.1 °F - 55.0 °F 83% 29.94 in 10.0 mi NE 5.8 mph - 0.01 in   Overcast
10:53 PM 60.1 °F - 55.9 °F 86% 29.94 in 8.0 mi NNE 5.8 mph - 0.01 in Rain Light Rain
11:53 PM 59.0 °F - 55.9 °F 90% 29.92 in 10.0 mi North 5.8 mph - 0.02 in   Overcast